sat.trackr.live / text

‹ back to catalog

ONEWEB-0691

NORAD 61599 · 2024-188F

PAYLOAD ACTIVE UNKNOWN

§ Identity

Operator
Country
UK
Launch date
2024-10-20
Launch site
AFWTR
Launch vehicle
Mass (kg)
RCS (m²)

Purposes: comms

External: N2YO · Heavens-Above · Gunter

§ Orbital elements

Epoch: 2026-09-19T13:47:59.217216Z

Period
109.80 min
Inclination
87.8986°
Eccentricity
0.0002059
Mean motion
13.11416903 rev/d
Perigee alt
1,216.1 km
Apogee alt
1,219.2 km
Semi-major
7,595.8 km
B*
1.4677e-3
RAAN
2.2227°
Arg perigee
109.5579°
Mean anomaly
250.5772°
Rev number
9,685

§ Raw data

ONEWEB-06911 61599U 24188F   26262.57499094  .00000533  00000+0  14677-2 0  99952 61599  87.8986   2.2227 0002059 109.5579 250.5772 13.11416903 96850

JSON: /api/v1/satellites/61599 · /tle

For live sub-satellite position, see the globe view (requires WebGL).

§ Visibility from observer

Set your observer location to see the next 7 days of passes ≥ 10°. The values pass through the URL so the page stays shareable.

No JS? Fill the form by hand. The geolocation button needs JavaScript.